Lid_Strength_Index
5 5 6 1 1 1 1 1 0 0 -0 -0 0 1 -0 -1 -1 -1 -1 -1 -1 -1 -1 -1 -1 -0 -0 -0 -0 -0 0 0
6 5 6 4 1 1 1 1 1 1 1 1 1 2 1 0 -0 -1 -1 -1 -1 -1 -1 -1 -1 -0 -0 -0 0 0 1 -0
7 5 5 7 6 1 1 1 1 1 1 1 0 1 0 0 -0 -1 -1 -1 -1 -1 -0 -0 -0 -0 0 -0 0 1 1 0
6 6 5 3 5 6 1 1 1 1 0 0 0 0 0 1 1 0 -0 -1 -1 -1 -1 -0 -0 -0 0 0 0 1 2 1
6 6 6 6 4 4 5 1 1 1 0 1 1 2 2 1 1 0 0 -1 -1 -1 -1 -1 -0 -0 0 0 0 0 1 2
7 6 6 5 6 4 3 3 3 1 1 1 1 2 1 1 1 1 0 -0 -0 -0 -1 -0 -0 -0 -0 -0 0 0 1 1
6 6 5 5 4 5 4 3 2 1 1 1 1 2 2 2 1 1 1 1 0 -0 -0 -0 -0 -0 0 0 -0 0 0 1
6 6 6 5 5 4 5 6 5 2 1 1 1 1 1 2 1 1 1 1 1 1 0 0 0 -0 -0 -0 0 0 0 1
6 6 7 6 5 5 6 6 6 5 3 1 1 1 1 1 1 1 1 1 1 -0 0 -0 -0 -0 -0 -0 0 0 0 0
5 6 6 7 7 7 6 7 7 8 7 7 3 1 1 1 1 1 1 0 0 0 0 0 0 -0 -0 -0 0 0 0 0
6 6 6 7 7 7 8 8 8 8 7 9 9 8 3 1 1 1 1 0 0 0 0 0 0 0 0 0 0 0 1 1
7 7 7 7 8 8 8 8 9 9 9 9 9 9 9 7 6 3 1 1 0 1 1 1 1 1 0 1 1 1 1 1
6 6 7 8 8 8 9 9 9 8 9 8 9 10 9 9 9 9 7 4 2 1 1 2 1 1 1 1 1 1 1 2
6 6 6 7 7 7 8 9 9 9 9 9 9 9 10 10 10 9 8 8 7 3 2 2 1 1 1 1 1 1 1 1
6 6 6 6 6 7 8 8 9 9 9 9 10 10 10 10 10 9 8 8 8 8 3 1 1 2 2 1 1 1 1 1
6 6 6 6 6 6 6 7 8 9 9 9 10 10 9 9 9 8 8 8 8 8 6 4 1 1 1 1 1 1 1 2
6 6 6 6 6 7 7 7 7 9 9 10 9 10 11 11 10 10 8 8 8 7 6 5 4 2 9 10 6 1 1 2
6 6 6 6 6 6 7 7 6 8 8 9 9 10 11 11 10 10 10 10 9 8 7 6 5 4 9 10 11 2 1 2
6 6 6 6 6 6 6 6 7 7 7 9 9 9 10 11 11 11 11 11 10 10 9 8 7 6 10 10 11 3 1 1